Regional Weather Roundup
Issued by NWS

Home | Current Version | Previous Version | Graphics & Text | Print | Product List | Glossary On
Versions: 1 2 3 4 5 6 7 8 9 10 11 12 13 14 15 16 17 18 19 20 21 22 23 24 25 26 27 28 29 30 31 32 33 34 35 36 37 38 39 40 41 42 43 44 45 46 47 48 49 50
000
ASUS43 KMPX 020910
RWRMN
WEATHER ROUNDUP FOR MINNESOTA
NATIONAL WEATHER SERVICE TWIN CITIES/CHANHASSEN MN
400 AM CDT TUE JUN 02 2015


NOTE: "FAIR" INDICATES FEW OR NO CLOUDS BELOW 12,000 FEET WITH NO
SIGNIFICANT WEATHER AND/OR OBSTRUCTIONS TO VISIBILITY. N/A MEANS
CURRENT SKY AND/OR WEATHER CONDITIONS ARE NOT AVAILABLE.

MNZ060>063-068>070-021000-
   Twin Cities Metro

CITY           SKY/WX    TMP DP  RH WIND       PRES   REMARKS
TWIN CITIES    PTCLDY    55  40  56 SE7       30.09S
ST PAUL        PTCLDY    55  43  63 SE8       30.10R
CRYSTAL        PTCLDY    57  41  55 S9        30.06F
BLAINE         PTCLDY    59  39  47 S12G17    30.08F
LAKEVILLE      PTCLDY    52  41  66 CALM      30.10S
EDEN PRAIRIE   CLEAR     56  40  55 SE9       30.07S
SOUTH ST PAUL  PTCLDY    55  42  60 SE3       30.10S
LAKE ELMO      FAIR      52  43  71 S6        30.11S
$$
MNZ001>005-007-008-013>017-022>024-027-028-021000-
   Northwest Minnesota

CITY           SKY/WX    TMP DP  RH WIND       PRES   REMARKS
BEMIDJI        CLOUDY    58  39  48 S10       29.97F
HALLOCK        CLOUDY    57  54  88 S13       29.83F
ROSEAU         CLOUDY    59  46  63 S16       29.89F
WARROAD        CLOUDY    57  46  67 S6        29.91F
THIEF RVR FALL CLOUDY    55  52  88 S13       29.91F
CROOKSTON      TSTM      55  54  94 SE8       29.91F
FOSSTON        CLOUDY    61  43  51 S15       29.92F THUNDER
DETROIT LAKES  CLOUDY    61  45  55 S12       29.95F
MOORHEAD       CLOUDY    63  46  55 SE18G24   29.88F
PARK RAPIDS    CLOUDY    57  39  51 S10       29.98S
MAHNOMEN       CLOUDY    61  44  52 S14G20    29.91F
$$
MNZ006-009>011-018-025>026-021000-
   North Central Minnesota

CITY           SKY/WX    TMP DP  RH WIND       PRES   REMARKS
BAUDETTE       CLOUDY    58  41  53 S6        29.94S
INTL FALLS     CLOUDY    55  38  52 S7        29.98F
WASKISH        CLOUDY    59  43  55 S12G24    29.93F
BIG FORK       CLOUDY    55  39  54 S9        30.02S
LONGVILLE      MOCLDY    57  43  58 S7        30.01S
GRAND RAPIDS   MOCLDY    46  36  66 SE9       30.03F
CRANE LAKE     CLOUDY    54  36  50 S7        30.05F
ORR            CLOUDY    50  32  50 SE7       30.02S
COOK           CLOUDY    52  37  58 S5        30.05F
WALKER         FAIR      56  40  55 S6        29.98S
$$
MNZ012-019>021-037-021000-
   Northeast Minnesota

CITY           SKY/WX    TMP DP  RH WIND       PRES   REMARKS
DULUTH         PTCLDY    44  31  60 SE6       30.10R
ELY            CLOUDY    54  37  54 S7        30.07S
HIBBING        CLOUDY    42  34  73 SE5       30.07S
EVELETH        MOCLDY    46  34  61 SE3       30.08F
DULUTH HARBOR  MOCLDY    45  36  70 NE7       30.13R
TWO HARBORS    MOCLDY    48  39  71 CALM      30.09S
SILVER BAY     MOCLDY    39  36  87 CALM      30.10R
GRAND MARAIS     N/A     43  35  73 NE3       30.13S
G MARAIS ARPRT CLOUDY    43  30  61 CALM      30.13S
$$
MNZ029>031-032-039>041-046>048-054>057-064-021000-
   West Central Minnesota

CITY           SKY/WX    TMP DP  RH WIND       PRES   REMARKS
FERGUS FALLS   CLOUDY    63  46  55 S17       29.93F
WHEATON        CLOUDY    57  46  67 SE17      29.92F
MORRIS         MOCLDY    57  45  62 SE15      29.94F
ALEXANDRIA     CLOUDY    60  41  49 S13       30.00F
ELBOW LAKE     FAIR      60  45  55 SE18      29.94F
WADENA         CLOUDY    57  39  51 S10       29.98F
GLENWOOD       MOCLDY    61  43  51 S14G22    30.00F
APPLETON       MOCLDY    61  46  59 SE10      29.95F
BENSON         MOCLDY    59  41  51 S12       29.98F
ORTONVILLE     MOCLDY    59  48  67 SE9       29.94F
MADISON        MOCLDY    59  46  63 S12       29.96S
WILLMAR        FAIR      59  43  55 SE9       30.02F
$$
MNZ033>034-036-042>043-049>051-058-059-021000-
   Central Minnesota

CITY           SKY/WX    TMP DP  RH WIND       PRES   REMARKS
ST CLOUD       PTCLDY    55  42  61 SE7       30.05S
SAUK CENTRE    PTSUNNY   55  42  60 SE7       30.02S
PAYNESVILLE    MOCLDY    57  41  55 SE9       30.03F
AITKIN         PTCLDY    57  45  62 S8        30.02F
PINE RIVER     MOCLDY    54  45  71 SE7       30.04F
BRAINERD       MOCLDY    55  42  61 S7        30.03F
STAPLES        MOCLDY    55  39  54 SE9       30.00F
LONG PRAIRIE   FAIR      54  41  62 SE9       30.02F
LITTLE FALLS   MOCLDY    54  41  62 SE3       30.04S
LITCHFIELD     PTCLDY    61  45  55 SE5       30.04F
BUFFALO        PTCLDY    57  40  52 SE6       30.06F
MAPLE LAKE     PTCLDY    58  44  60 SE6       30.06S
$$
MNZ037-044-045-052-053-021000-
   East Central Minnesota

CITY           SKY/WX    TMP DP  RH WIND       PRES   REMARKS
PRINCETON      PTCLDY    57  41  54 SE7       30.07R
MORA           PTCLDY    52  41  66 SE3       30.09S
CAMBRIDGE      PTCLDY    57  43  58 SE5       30.06S
RUSH CITY      MOCLDY    52  42  69 SE6       30.08F
MOOSE LAKE     PTCLDY    37  36  93 NE3       30.06F
HINCKLEY       FAIR      45  45 100 CALM      30.08F
CLOQUET        PTCLDY    39  34  81 E3        30.09S
MCGREGOR       PTCLDY    45  39  81 SE5       30.06F
$$
MNZ071>073-080-081-089-090-097-098-021000-
   Southwest Minnesota

CITY           SKY/WX    TMP DP  RH WIND       PRES   REMARKS
MONTEVIDEO     MOCLDY    61  46  59 S12G17    29.99F
GRANITE FALLS  MOCLDY    58  45  60 SE10      30.01F
CANBY          MOCLDY    61  49  65 S8        29.98S
MARSHALL       MOCLDY    59  45  58 S9        30.00R
REDWOOD FALLS  PTCLDY    58  43  57 SE10      30.02F
OLIVIA         MOCLDY    55  39  54 S9        30.01F
PIPESTONE      MOCLDY    57  48  72 S13       30.01R
WINDOM         MOCLDY    59  48  67 SE12      30.04S
WORTHINGTON    MOCLDY    57  45  62 S10       30.04R
JACKSON        MOCLDY    57  50  77 S10       30.06S
TRACY          MOCLDY    60  48  65 S12       30.01S
SLAYTON        MOCLDY    56  48  74 S9        30.03S
$$
MNZ065>067-074>077-082>085-091>093-021000-
   South Central Minnesota

CITY           SKY/WX    TMP DP  RH WIND       PRES   REMARKS
MANKATO        CLEAR     57  41  54 S10       30.08S
NEW ULM        PTCLDY    55  45  67 SE10      30.04F
ST JAMES       MOCLDY    59  48  67 SE12      30.06F
FAIRMONT       MOCLDY    55  46  71 S9        30.07S
GLENCOE        PTCLDY    58  45  60 SE7       30.05F
FARIBAULT      CLEAR     55  41  58 SE7       30.10S
OWATONNA       CLEAR     55  39  54 SE10      30.11R
WASECA         CLEAR     54  41  62 SE8       30.11R
ALBERT LEA     CLEAR     55  43  62 S8        30.11R
$$
MNZ078>079-086>088-094>096-021000-
   Southeast Minnesota

CITY           SKY/WX    TMP DP  RH WIND       PRES   REMARKS
ROCHESTER      PTCLDY    49  41  74 SE8       30.14S
RED WING       MOCLDY    55  39  54 CALM      30.11S
STANTON        CLEAR     55  41  58 S7        30.10R
DODGE CENTER   CLEAR     52  43  71 S6        30.12R
WINONA         PTCLDY    50  43  76 CALM      30.14F
AUSTIN         CLEAR     52  43  71 S5        30.12S
PRESTON        PTCLDY    49  40  70 SE6       30.14F
$$
ABBREVIATIONS USED IN REMARKS
   TC - TEMPERATURES IN CELSIUS
  WCI - WIND CHILL INDEX
   HX - HEAT INDEX
  VSB - VISIBILITY
$$


USA.gov is the U.S. government's official web portal to all federal, state and local government web resources and services.